Location: Allentsteig
(48.6833°N, 15.3167°E)
Time: 01:34:56
(UTC+00:00)

Cosmos 1891 Rocket - Pass Details

Date: 18 September 2020
Orbit: 934 x 1018 km, 82.9° (Epoch: 31 October)

Event Time Altitude Azimuth Distance (km) Brightness Sun altitude
Rises 18:25:10 0° 183° (S) 3,645 7.3 -13.9°
Reaches altitude 10° 18:27:40 10° 182° (S) 2,691 6.6 -14.3°
Maximum altitude 18:33:48 80° 97° (E) 969 4.4 -15.2°
Drops below altitude 10° 18:39:53 10° 11° (N) 2,665 6.9 -16.2°
Sets 18:42:22 0° 11° (N) 3,609 7.6 -16.6°
